[Date Prev][Date Next][Thread Prev][Thread Next] - [Date Index][Thread Index][Author Index]
2 Line ISS Keps 1-23
- Subject: [sarex] 2 Line ISS Keps 1-23
- From: "Dave Larsen Ph.D." <doc@xxxxxxxxxxx>
- Date: Thu, 23 Jan 2003 04:45:25 -0800
ISS
1 25544U 98067A 03023.18682006 .00022526 00000-0 28353-3 0 6133
2 25544 51.6366 28.6103 0005649 66.3240 27.2342 15.59539852238380
----
Via the sarex mailing list at AMSAT.ORG courtesy of AMSAT-NA.
To unsubscribe, send "unsubscribe sarex" to Majordomo@amsat.org
AMSAT Home